Regional Weather Roundup
Issued by NWS

Home | Current Version | Previous Version | Graphics & Text | Print | Product List | Glossary On
Versions: 1 2 3 4 5 6 7 8 9 10 11 12 13 14 15 16 17 18 19 20 21 22 23 24 25 26 27 28 29 30 31 32 33 34 35 36 37 38 39 40 41 42 43 44 45 46 47 48 49 50
000
ASUS45 KBOI 030010
RWRID

IDAHO REGIONAL WEATHER ROUNDUP
NATIONAL WEATHER SERVICE BOISE ID
600 PM MDT SUN AUG 02 2015

NOTE: "FAIR" INDICATES FEW OR NO CLOUDS BELOW 12000 FEET
WITH NO SIGNIFICANT WEATHER AND/OR OBSTRUCTIONS TO VISIBILITY

IDZ012-014-030100-
SOUTHWEST IDAHO


CITY           SKY/WX    TMP DP  RH WIND       PRES   REMARKS
BOISE          PTSUNNY   99  40  13 NW7       29.79F HX  94
CALDWELL       PTSUNNY  100  43  14 W8        29.77F HX  96
MOUNTAIN HOME  MOSUNNY  102  34   9 N3        29.79F HX  95
$$

IDZ016-017-030100-
SOUTHCENTRAL IDAHO


CITY           SKY/WX    TMP DP  RH WIND       PRES   REMARKS
BURLEY         PTSUNNY   94  37  13 VRB5      29.90F
JEROME         PTSUNNY   95  46  18 NW3       29.90F HX  91
TWIN FALLS     MOSUNNY   97  36  12 N7        29.88F HX  92
$$

IDZ019>023-030100-
SOUTHEAST IDAHO


CITY           SKY/WX    TMP DP  RH WIND       PRES   REMARKS
IDAHO FALLS    PTSUNNY   95  29   9 N5        29.97F
POCATELLO      MOSUNNY   92  41  17 NW7       29.94F
REXBURG        MOSUNNY   92  24   8 CALM      29.98F
$$

IDZ006-010-011-018-031-032-030100-
CENTRAL IDAHO MOUNTAINS


CITY           SKY/WX    TMP DP  RH WIND       PRES   REMARKS
MCCALL         MOSUNNY   92  30  11 W12       29.97F
HAILEY         MOSUNNY   90  45  20 SE9       30.02F
STANLEY          N/A     83  33  16 SE10G18   30.12R
SALMON         MOSUNNY   93  39  15 NW5       29.86F
CHALLIS        MOSUNNY   92  42  17 N7        29.96F
$$

IDZ002-004-006-007-026-030100-
NORTHERN IDAHO


CITY           SKY/WX    TMP DP  RH WIND       PRES   REMARKS
LEWISTON       SUNNY    105  26   6 NW9       29.76F HX  97
LOWELL           N/A     96  40  14 CALM      29.74F HX  92
COEUR D`ALENE  MOSUNNY   99  34  10 W12G20    29.82F HX  93
MULLAN PASS    SUNNY     83  27  13 VRB3      30.13F
$$


USA.gov is the U.S. government's official web portal to all federal, state and local government web resources and services.